Weather in Gay

Russia / Orenburg Oblast     51°27′54″N   58°26′37″E
temp.,
°C
wind,
m/s
gust,
m/s
humid.,
%
clouds,
%
prec.,
mm/h
press.,
hPa
HPBL,
m
28 february, sun
sun2823:00−5sse3697100 0.8 1005168
02:00−2sse3498100 0.3 1004138
05:000sw4898100 1.3 1003402
08:000wsw5899100 1.8 1001421
11:000wsw4797100 2.4 1001550
14:00−1wsw4894100 1.1 1002680
17:00−1wsw4794100 1.6 1003492
20:00−6wsw359797 0.6 1006156
1 march, mon
mon123:00−11w469496 0.9 1009111
02:00−14w4793100 0.0 1011133
05:00−15w4794100 0.1 1013142
08:00−16w459496 0.0 1015101
11:00−13w459391 0.1 1017214
14:00−12w459174 0.0 1017292
17:00−12w579281 0.0 1018321
20:00−14w599393 0.1 1019295
2 march, tue
tue223:00−15w499390 0.1 1020242
02:00−17w599578 0.0 1020189
05:00−17w5119386 0.1 1020278
08:00−21w59963 0.0 1020183
11:00−19wsw610934 0.0 1020291
14:00−16wsw6119033 0.0 1019376
17:00−15wsw7129047 0.0 1017399
20:00−14sw8139197 0.0 1016420
3 march, wed
wed323:00−12sw6159199 0.0 1014543
02:00−8sw71492100 0.0 1011642
05:00−5sw81592100 0.1 1009700
08:00−4sw81494100 0.3 1007747
11:00−3sw81392100 0.5 1007883
14:00−1sw81193100 0.3 1006890
17:00−1sw61194100 0.5 1005690
20:00−3ssw4898100 0.3 1005236
4 march, thu
thu423:00−3sw3797100 0.5 1005161
02:00−4sw3597100 0.2 1004106
05:00−4wnw3696100 0.9 1004230
08:00−8nw4990100 0.1 1005177
11:00−8nw7118677 0.1 1008380
14:00−6wnw711830 0.0 1010604
17:00−7w712850 0.0 1012508
20:00−11wsw5129318 0.0 1014295